Regional Weather Roundup
Issued by NWS

Home | Current Version | Previous Version | Text Only | Print | Product List | Glossary Off
Versions: 1 2 3 4 5 6 7 8 9 10 11 12 13 14 15 16 17 18 19 20 21 22 23 24 25 26 27 28 29 30 31 32 33 34 35 36 37 38 39 40 41 42 43 44 45 46 47 48 49 50

027
ASUS43 KMPX 231210
RWRMN
WEATHER ROUNDUP FOR MINNESOTA
NATIONAL WEATHER SERVICE TWIN CITIES/CHANHASSEN MN
600 AM CST THU NOV 23 2017


NOTE: "FAIR" INDICATES FEW OR NO CLOUDS BELOW 12,000 FEET WITH NO
SIGNIFICANT WEATHER AND/OR OBSTRUCTIONS TO VISIBILITY. N/A MEANS
CURRENT SKY AND/OR WEATHER CONDITIONS ARE NOT AVAILABLE.

MNZ060>063-068>070-231300-
   Twin Cities Metro

CITY           SKY/WX    TMP DP  RH WIND       PRES   REMARKS
TWIN CITIES    CLOUDY    23  19  85 NW3       29.95R
6HR MIN TEMP:  23; 6HR MAX TEMP:  30;

ST PAUL        CLOUDY    23  19  85 CALM      29.96R
CRYSTAL        CLOUDY    21  14  74 CALM      29.94R
BLAINE         CLOUDY    21  19  93 CALM      29.93S
LAKEVILLE      CLOUDY    18  16  93 CALM      29.93S
EDEN PRAIRIE   CLOUDY    24  18  77 CALM      29.94R
6HR MIN TEMP:  23; 6HR MAX TEMP:  30;

SOUTH ST PAUL  CLOUDY    23  18  83 CALM      29.94S
LAKE ELMO      FAIR      21  19  93 CALM      29.95R
$$
MNZ001>005-007-008-013>017-022>024-027-028-231300-
   Northwest Minnesota

CITY           SKY/WX    TMP DP  RH WIND       PRES   REMARKS
BEMIDJI        CLOUDY    13  11  92 CALM      29.87F
HALLOCK        CLOUDY    19  18  93 S5        29.87F WCI  13
ROSEAU         CLOUDY    18  14  86 SW5       29.86F WCI  11
WARROAD        MOCLDY    18  12  79 SW3       29.86S
THIEF RVR FALL CLOUDY    16  12  86 SW6       29.90S WCI   7
CROOKSTON      CLOUDY    25  21  86 SW5       29.93R WCI  19
FOSSTON        CLOUDY    18  16  93 S3        29.89F
DETROIT LAKES  CLOUDY    21  19  93 S3        29.90F
MOORHEAD       CLOUDY    25  18  74 CALM      29.94S
PARK RAPIDS    CLOUDY    13   9  84 SE5       29.89F WCI   5
MAHNOMEN       PTSUNNY   17  13  87 S6        29.90S WCI   8
$$
MNZ006-009>011-018-025>026-231300-
   North Central Minnesota

CITY           SKY/WX    TMP DP  RH WIND       PRES   REMARKS
BAUDETTE       CLOUDY    17  14  88 SW3       29.85F
FLAG ISLAND    CLOUDY    19  16  86 W3        29.85S
INTL FALLS     CLOUDY    19  15  84 SW6       29.85F WCI  11
6HR MIN TEMP:  15; 6HR MAX TEMP:  20;

WASKISH        CLOUDY    19  18  93 SW3       29.86F
BIG FORK       CLOUDY    14  12  92 SW3       29.87F
LONGVILLE      CLOUDY     7   5  92 CALM      29.91F
GRAND RAPIDS   CLOUDY    14  12  92 SW3       29.92S
CRANE LAKE     CLOUDY    14  12  92 CALM      29.88F
ORR            CLEAR     18  16  93 CALM      29.84S
COOK           CLOUDY    16  16 100 CALM      29.87F
WALKER         FAIR      13  11  90 CALM      29.89F
$$
MNZ012-019>021-037-231300-
   Northeast Minnesota

CITY           SKY/WX    TMP DP  RH WIND       PRES   REMARKS
DULUTH         CLOUDY    16  15  96 W9        29.88R WCI   4
6HR MIN TEMP:  16; 6HR MAX TEMP:  22;

ELY            CLOUDY    18  16  93 W5        29.85S WCI  11
HIBBING        CLOUDY    17  16  95 W3        29.88F
EVELETH        CLOUDY    17  14  88 W3        29.89S
DULUTH HARBOR  CLOUDY    25  21  86 SW6       29.94S WCI  18
TWO HARBORS    CLOUDY    21  16  79 S6        29.87S WCI  14
SILVER BAY     CLOUDY    19  18  93 CALM      29.85F
GRAND MARAIS     N/A     26  20  77 W8        29.87S WCI  18
G MARAIS ARPRT CLOUDY    18  14  86 W3        29.79F
$$
MNZ029>031-032-039>041-046>048-054>057-064-231300-
   West Central Minnesota

CITY           SKY/WX    TMP DP  RH WIND       PRES   REMARKS
FERGUS FALLS   CLOUDY    18  14  86 CALM      29.96F
WHEATON        CLOUDY    19  18  93 W6        29.98S WCI  11
MORRIS         CLOUDY    19  16  86 NW3       29.94S
ALEXANDRIA     CLEAR     19  17  92 CALM      29.92F
ELBOW LAKE     FAIR      19  16  89 CALM      29.93F FOG
WADENA         CLOUDY    12  10  92 CALM      29.91F
GLENWOOD       CLOUDY    19  16  86 CALM      29.94S
APPLETON       CLOUDY    19  18  93 W3        29.97S
BENSON         CLOUDY    19  16  86 CALM      29.97S
ORTONVILLE     CLOUDY    25  19  80 W5        29.96S WCI  19
MADISON        CLOUDY    27  21  80 NW6       29.98R WCI  20
WILLMAR        FAIR      19  18  93 W5        29.96S WCI  13
$$
MNZ033>034-036-042>043-049>051-058-059-231300-
   Central Minnesota

CITY           SKY/WX    TMP DP  RH WIND       PRES   REMARKS
ST CLOUD       CLOUDY    19  16  88 N3        29.95S
6HR MIN TEMP:  18; 6HR MAX TEMP:  24;

SAUK CENTRE    FAIR      17  15  88 CALM      29.94S
PAYNESVILLE    CLOUDY    18  17  93 CALM      29.94F
AITKIN         CLOUDY     7   3  85 CALM      29.92S
PINE RIVER     CLOUDY     7   3  85 CALM      29.96S
BRAINERD       CLOUDY     9   6  88 CALM      29.93F
STAPLES        CLOUDY    14  12  92 CALM      29.92F
LITTLE FALLS   CLOUDY    18  12  79 CALM      29.95S
LITCHFIELD     CLOUDY    25  19  80 NW5       29.95S WCI  19
BUFFALO        CLOUDY    23  18  82 CALM      29.95S
MAPLE LAKE     CLOUDY    22  19  89 NW3       29.94F
HUTCHINSON     CLOUDY    22  18  83 W3        29.96R
$$
MNZ037-044-045-052-053-231300-
   East Central Minnesota

CITY           SKY/WX    TMP DP  RH WIND       PRES   REMARKS
PRINCETON      CLOUDY    18  16  93 CALM      29.94S
MORA           CLOUDY    16  14  93 CALM      29.96R
CAMBRIDGE      CLOUDY    19  16  86 CALM      29.95S
RUSH CITY      CLOUDY    16  16 100 CALM      29.95S
MOOSE LAKE     CLEAR     16  12  86 CALM      29.92R
HINCKLEY       FAIR      16  14  93 CALM      29.94S
CLOQUET        CLOUDY    18  16  93 W5        29.90R WCI  11
MCGREGOR       CLOUDY    12  12 100 CALM      29.93S
$$
MNZ071>073-080-081-089-090-097-098-231300-
   Southwest Minnesota

CITY           SKY/WX    TMP DP  RH WIND       PRES   REMARKS
MONTEVIDEO     CLOUDY    21  18  86 NW3       29.97S
GRANITE FALLS  CLOUDY    22  19  89 W7        29.99R WCI  14
CANBY          CLOUDY    28  23  82 SW3       29.98S
MARSHALL       CLOUDY    25  20  81 W7        29.98R WCI  17
REDWOOD FALLS  CLOUDY    24  18  77 NW9       29.97R WCI  14
OLIVIA         CLOUDY    21  18  86 NW6       29.95S WCI  14
PIPESTONE      CLOUDY    27  21  80 NW7       29.96S WCI  19
WINDOM         CLOUDY    27  14  59 W5        29.95S WCI  21
WORTHINGTON    CLOUDY    26  21  81 W6        29.96S WCI  19
JACKSON        CLOUDY    30  23  74 NW10      29.95S WCI  21
SLAYTON        PTCLDY    26  16  65 W6        29.96S WCI  20
$$
MNZ065>067-074>077-082>085-091>093-231300-
   South Central Minnesota

CITY           SKY/WX    TMP DP  RH WIND       PRES   REMARKS
MANKATO        CLOUDY    25  18  74 W5        29.95R WCI  19
NEW ULM        CLOUDY    21  16  79 CALM      29.95R
ST JAMES       CLOUDY    27  21  80 W9        29.96R WCI  17
FAIRMONT       CLOUDY    29  23  78 NW9       29.95R WCI  20
GLENCOE        CLOUDY    25  19  78 NW6       29.94R WCI  18
FARIBAULT      CLOUDY    19  18  93 CALM      29.93S
OWATONNA       CLOUDY    19  16  86 CALM      29.92S
WASECA         CLOUDY    23  19  86 CALM      29.94S
ALBERT LEA     CLOUDY    27  18  69 CALM      29.92S
$$
MNZ078>079-086>088-094>096-231300-
   Southeast Minnesota

CITY           SKY/WX    TMP DP  RH WIND       PRES   REMARKS
ROCHESTER      CLOUDY    22  18  85 W8        29.92R WCI  12
6HR MIN TEMP:  22; 6HR MAX TEMP:  29;

RED WING       CLOUDY    21  16  79 CALM      29.93S
STANTON        CLOUDY    22  18  85 CALM      29.92F
DODGE CENTER   CLOUDY    21  18  86 W7        29.91R WCI  13
WINONA         PTCLDY    28  23  80 CALM      29.95R
AUSTIN         CLOUDY    25  18  74 CALM      29.93R
PRESTON        CLOUDY    24  17  73 SW3       29.92S
$$
ABBREVIATIONS USED IN REMARKS
   TC - TEMPERATURES IN CELSIUS
  WCI - WIND CHILL INDEX
   HX - HEAT INDEX
  VSB - VISIBILITY
$$




USA.gov is the U.S. government's official web portal to all federal, state and local government web resources and services.